Flag for Germany Weather past 2 weeks in Luckenwalde, Brandenburg, Germany

Now
59 °F

Scattered clouds.


Feels Like: 60 °F
Forecast: 45 / 70 °F
Wind: 3 mph from West

Location: Potsdam

Current Time: Aug 21, 2014 at 8:34:11 PM

Latest Report: Aug 21, 2014 at 8:00 PM


Visibility: 28 mi

Pressure: 29.98 "Hg

Humidity: 60%

Dew point: 45 °F

Location of LuckenwaldeLocation

Historic Weather in Luckenwalde — Graph

°F

Luckenwalde temperature yesterday

Maximum temperature yesterday: 66 °F (at 4:00 PM)
Minimum temperature yesterday: 48 °F (at 6:00 AM)
Average temperature yesterday: 56 °F

Past Weeks' High & Low Weather Summary

 TemperatureHumidityPressure
High83 °F (Aug 10, 5:00 PM)99% (Aug 8, 6:00 AM)30.02 "Hg (Aug 8, 6:00 AM)
Low47 °F (Aug 21, 6:00 AM)37% (Aug 8, 5:00 PM)29.61 "Hg (Aug 18, 3:00 PM)
Average63 °F75%29.85 "Hg
* Reported Aug 6 7:00 PM — Aug 21 7:00 PM, Luckenwalde, Weather by CustomWeather, © 2014

Note: Actual official high and low records may vary slightly from our data, if they occured in-between our weather recording intervals... More about our weather records

Advertising

Luckenwalde weather history for previous 24 hours

 ConditionsComfort  
Time TempWeatherWind HumidityBarometerVisibility
7:00 PM
Aug 21
63 °FScattered clouds.3 mph54%29.98 "Hg28 mi
6:00 PM63 °FScattered clouds.3 mph51%29.98 "Hg28 mi
5:00 PM65 °FPartly sunny.3 mph50%29.98 "Hg28 mi
4:00 PM64 °FPartly sunny.5 mph56%29.98 "Hg25 mi
3:00 PM66 °FScattered clouds.5 mph53%29.99 "Hg25 mi
2:00 PM64 °FPartly sunny.6 mph54%30.00 "Hg25 mi
1:00 PM62 °FScattered clouds.3 mph61%30.01 "Hg22 mi
12:00 PM60 °FPartly sunny.2 mph71%30.01 "Hg22 mi
11:00 AM57 °FPartly sunny.2 mph77%30.01 "Hg19 mi
10:00 AM54 °FOvercast.2 mph91%30.02 "Hg19 mi
9:00 AM54 °FOvercast.5 mph82%30.02 "Hg19 mi
8:00 AM51 °FPartly sunny.3 mph89%30.00 "Hg22 mi
7:00 AM47 °FScattered clouds.5 mph92%30.00 "Hg22 mi
6:00 AM47 °FScattered clouds.5 mph94%29.99 "Hg22 mi
5:00 AM48 °FClear.5 mph90%29.99 "Hg22 mi
4:00 AM50 °FPassing clouds.5 mph87%29.99 "Hg25 mi
3:00 AM50 °FPassing clouds.5 mph86%30.00 "Hg25 mi
2:00 AM50 °FPassing clouds.5 mph85%30.00 "Hg25 mi
1:00 AM50 °FPassing clouds.3 mph87%30.00 "Hg25 mi
12:00 AM51 °FPassing clouds.3 mph89%29.99 "Hg25 mi
11:00 PM
Aug 20
52 °FPassing clouds.5 mph85%29.99 "Hg25 mi
10:00 PM53 °FPassing clouds.2 mph79%29.99 "Hg25 mi
9:00 PM58 °FPassing clouds.5 mph66%29.97 "Hg28 mi
8:00 PM60 °FPartly sunny.6 mph60%29.95 "Hg28 mi
Weather by CustomWeather, © 2014

See weather overviewHow to use our weather pages